[Date Prev][Date Next][Thread Prev][Thread Next] - [Date Index][Thread Index][Author Index]
2 Line ISS Keps 10-20
- Subject: [sarex] 2 Line ISS Keps 10-20
- From: "Dave Larsen PhD" <doc@xxxxxxxxxxx>
- Date: Wed, 19 Oct 2005 19:16:08 -0700
ISS
1 25544U 98067A 05292.90989583 .00032301 00000-0 22417-3 0 5847
2 25544 051.6437 341.8955 0001111 074.6939 281.6959 15.74133661395302
----
Via the sarex mailing list at AMSAT.ORG courtesy of AMSAT-NA.
To unsubscribe, send "unsubscribe sarex" to Majordomo@amsat.org
AMSAT Home